Hong Kong, Hong Kong

8:41 PM HKT on May 30, 2017 (GMT +0800)
Hong Kong International

Weather History for VHHH - November, 2012

Change the Weather History Date:

Monday, November 5, 2012

  Actual Average Record
Temperature  
Mean Temperature 76 °F -  
Max Temperature 82 °F 75 °F 87 °F (2011)
Min Temperature 71 °F 65 °F 62 °F (2002)
Cooling Degree Days 12    
Growing Degree Days 26 (Base 50)    
Moisture  
Dew Point 60 °F    
Average Humidity 57    
Maximum Humidity 69    
Minimum Humidity 48    
Precipitation  
Precipitation 0.00 in - - ()
Sea Level Pressure  
Sea Level Pressure 29.99 in    
Wind  
Wind Speed 8 mph ()    
Max Wind Speed 14 mph    
Max Gust Speed -    
Visibility 5.7 miles    
Events      
Averages and records for this station are not official NWS values.
T = Trace of Precipitation, MM = Missing Value Source: Averaged Metar Reports

Daily Weather History Graph

Daily Weather History Graph

Search for Another Location

Airport or City:

Trip Planner

Search our weather history database for the weather conditions in past years. The results will help you decide how hot, cold, wet, or windy it might be!

Date:

Astronomy

Nov. 05, 2012 Rise Set
Actual Time 6:30 AM HKT 5:44 PM HKT
Civil Twilight 6:07 AM HKT 6:08 PM HKT
Nautical Twilight 5:40 AM HKT 6:34 PM HKT
Astronomical Twilight 5:14 AM HKT 7:01 PM HKT
Moon 10:51 PM HKT (11/5) 11:25 AM HKT (11/5)
Length of Visible Light 12h 00m
Length of Day
11h 14m
Waning Gibbous, 68% of the Moon is Illuminated
Nov 5
Waning Gibbous
Nov 7
Last Quarter
Nov 14
New
Nov 20
First Quarter
Nov 28
Full

Hourly Weather History & Observations

Time (HKT) Temp. Heat Index Dew Point Humidity Pressure Visibility Wind Dir Wind Speed Gust Speed Precip Events Conditions
12:00 AM 75.2 °F - 57.2 °F 53% 29.98 in - ENE 10.4 mph - N/A   Clear
12:30 AM 75.2 °F - 59.0 °F 57% 29.98 in - ENE 8.1 mph - N/A   Clear
1:00 AM 75.2 °F - 59.0 °F 57% 29.95 in - East 6.9 mph - N/A   Clear
1:30 AM 75.2 °F - 59.0 °F 57% 29.98 in - ENE 10.4 mph - N/A   Clear
2:00 AM 75.2 °F - 59.0 °F 57% 29.98 in - NE 11.5 mph - N/A   Clear
2:30 AM 73.4 °F - 59.0 °F 61% 29.95 in - ENE 10.4 mph - N/A   Clear
3:00 AM 73.4 °F - 59.0 °F 61% 29.98 in 6.2 mi NE 10.4 mph - N/A   Partly Cloudy
3:30 AM 75.2 °F - 60.8 °F 61% 29.98 in 6.2 mi ENE 4.6 mph - N/A   Scattered Clouds
4:00 AM 73.4 °F - 59.0 °F 61% 29.98 in 6.2 mi ENE 13.8 mph - N/A   Partly Cloudy
4:30 AM 73.4 °F - 59.0 °F 61% 29.98 in 6.2 mi ENE 12.7 mph - N/A   Partly Cloudy
5:00 AM 73.4 °F - 59.0 °F 61% 29.98 in 6.2 mi ENE 10.4 mph - N/A   Partly Cloudy
5:30 AM 71.6 °F - 59.0 °F 64% 29.98 in 6.2 mi ENE 11.5 mph - N/A   Partly Cloudy
6:00 AM 73.4 °F - 57.2 °F 57% 30.01 in 6.2 mi ENE 12.7 mph - N/A   Partly Cloudy
6:30 AM 71.6 °F - 55.4 °F 57% 30.01 in 6.2 mi ENE 12.7 mph - N/A   Partly Cloudy
7:00 AM 71.6 °F - 57.2 °F 60% 30.01 in 6.2 mi ENE 11.5 mph - N/A   Partly Cloudy
7:30 AM 73.4 °F - 57.2 °F 57% 30.01 in 5.6 mi ENE 10.4 mph - N/A   Partly Cloudy
8:00 AM 73.4 °F - 57.2 °F 57% 30.04 in 5.6 mi ENE 8.1 mph - N/A   Partly Cloudy
8:30 AM 75.2 °F - 57.2 °F 53% 30.04 in 6.2 mi ENE 6.9 mph - N/A   Partly Cloudy
9:00 AM 75.2 °F - 59.0 °F 57% 30.04 in 5.6 mi NE 6.9 mph - N/A   Unknown
9:30 AM 75.2 °F - 57.2 °F 53% 30.01 in - ENE 5.8 mph - N/A   Clear
10:00 AM 77.0 °F - 59.0 °F 54% 30.01 in - NE 4.6 mph - N/A   Clear
10:30 AM 78.8 °F - 59.0 °F 51% 30.01 in 6.2 mi North 5.8 mph - N/A   Partly Cloudy
11:00 AM 78.8 °F - 60.8 °F 54% 30.01 in 5.6 mi NNW 11.5 mph - N/A   Partly Cloudy
11:30 AM 78.8 °F - 60.8 °F 54% 29.98 in 5.6 mi North 11.5 mph - N/A   Partly Cloudy
12:00 PM 78.8 °F - 60.8 °F 54% 29.98 in 5.6 mi NNW 11.5 mph - N/A   Partly Cloudy
12:30 PM 78.8 °F - 60.8 °F 54% 29.98 in 5.6 mi NNW 10.4 mph - N/A   Partly Cloudy
1:00 PM 80.6 °F 81.5 °F 60.8 °F 51% 29.98 in 5.6 mi NNW 9.2 mph - N/A   Partly Cloudy
1:30 PM 78.8 °F - 59.0 °F 51% 29.95 in 5.0 mi NNW 6.9 mph - N/A   Partly Cloudy
2:00 PM 78.8 °F - 60.8 °F 54% 29.95 in 5.0 mi NW 9.2 mph - N/A   Partly Cloudy
2:30 PM 80.6 °F 81.1 °F 59.0 °F 48% 29.95 in 5.0 mi NW 8.1 mph - N/A   Partly Cloudy
3:00 PM 80.6 °F 81.5 °F 60.8 °F 51% 29.95 in 5.0 mi NW 5.8 mph - N/A   Partly Cloudy
3:30 PM 80.6 °F 81.1 °F 59.0 °F 48% 29.95 in 4.3 mi NW 5.8 mph - N/A   Partly Cloudy
4:00 PM 78.8 °F - 59.0 °F 51% 29.95 in 5.0 mi NNW 8.1 mph - N/A   Partly Cloudy
4:30 PM 78.8 °F - 59.0 °F 51% 29.95 in 5.0 mi NW 9.2 mph - N/A   Partly Cloudy
5:00 PM 78.8 °F - 59.0 °F 51% 29.95 in 5.0 mi NW 6.9 mph - N/A   Partly Cloudy
5:30 PM 77.0 °F - 59.0 °F 54% 29.95 in 5.0 mi WNW 5.8 mph - N/A   Partly Cloudy
6:00 PM 77.0 °F - 59.0 °F 54% 29.98 in 5.0 mi WNW 4.6 mph - N/A   Partly Cloudy
6:30 PM 77.0 °F - 60.8 °F 57% 29.98 in 6.2 mi NW 8.1 mph - N/A   Partly Cloudy
7:00 PM 77.0 °F - 60.8 °F 57% 29.98 in 6.2 mi West 9.2 mph - N/A   Scattered Clouds
7:30 PM 77.0 °F - 60.8 °F 57% 29.98 in 6.2 mi SW 5.8 mph - N/A   Scattered Clouds
8:00 PM 76 °F - 62 °F 52% 30.01 in 5 mi 4.5 mph - -   Partly Cloudy
8:00 PM 77.0 °F - 62.6 °F 61% 30.01 in 6.2 mi Variable 3.5 mph - N/A   Scattered Clouds
8:30 PM 77.0 °F - 62.6 °F 61% 30.01 in 6.2 mi SSE 6.9 mph - N/A   Partly Cloudy
9:00 PM 77.0 °F - 66.2 °F 69% 30.01 in 5.6 mi SE 9.2 mph - N/A   Partly Cloudy
9:30 PM 77.0 °F - 64.4 °F 65% 30.01 in 5.6 mi East 9.2 mph - N/A   Partly Cloudy
10:00 PM 77.0 °F - 66.2 °F 69% 30.01 in 6.2 mi East 11.5 mph - N/A   Partly Cloudy
10:30 PM 77.0 °F - 64.4 °F 65% 30.01 in 6.2 mi East 11.5 mph - N/A   Partly Cloudy
11:00 PM 75.2 °F - 62.6 °F 65% 30.04 in 6.2 mi East 10.4 mph - N/A   Partly Cloudy
11:30 PM 75.2 °F - 62.6 °F 65% 30.04 in 6.2 mi East 6.9 mph - N/A   Partly Cloudy